Regional Weather Roundup
Issued by NWS Wakefield, VA

Home | Current Version | Previous Version | Text Only | Print | Product List | Glossary On
Versions: 1 2 3 4 5 6 7 8 9 10 11 12 13 14 15 16 17 18 19 20 21 22 23 24 25 26 27 28 29 30 31 32 33 34 35 36 37 38 39 40 41 42 43 44 45 46 47 48 49 50
000
ASUS41 KAKQ 212215
RWRAKQ

REGIONAL WEATHER ROUNDUP
NATIONAL WEATHER SERVICE WAKEFIELD VA
500 PM EST TUE FEB 21 2017

Note: "fair" indicates few or no clouds below 12,000 feet with no
significant weather and/or obstructions to visibility. * = Denotes
station may not report precipitation (e.g., rain,snow,etc.),
thunder or fog.

VAZ042-051-052>054-056-212300-
NORTHERN VIRGINIA

CITY           SKY/WX    TMP DP  RH WIND       PRES   REMARKS
WASH NATIONAL  CLOUDY    55  34  45 S12       30.17F
DULLES         CLOUDY    53  33  46 SE13      30.14F
FORT BELVOIR   MOCLDY    55  34  45 SE8       30.16F
QUANTICO       CLOUDY    52  40  63 SE10      30.18S
FREDERICKSBRG* PTCLDY    58  37  45 S7        30.16S
STAFFORD*      MOCLDY    57  34  41 S6        30.20S
WARRENTON      CLOUDY    60  30  32 S7        30.15S
CULPEPER*      CLOUDY    59  36  41 S7        30.16S
MANASSAS*      CLOUDY    55  36  48 SE10      30.16F
LEESBURG*      PTCLDY    55  36  47 SE12      30.14F
WINCHESTER     PTCLDY    54  32  43 S12       30.10F
FRONT ROYAL*   MOCLDY    59  34  38 S7        30.09F
LURAY*         PTCLDY    59  36  41 SW9       30.11S
$$

VAZ048-049-060>072-079>083-212300-
CENTRAL AND SOUTH CENTRAL VIRGINIA

CITY           SKY/WX    TMP DP  RH WIND       PRES   REMARKS
RICHMOND       CLOUDY    57  36  45 SE9       30.17S
CHESTERFIELD*  FAIR      59  28  31 SE6       30.18S
PETERSBURG*    CLEAR     58  33  39 CALM      30.17S
HANOVER        PTCLDY    57  31  37 SE5       30.18S
TAPPAHANNOCK*  PTCLDY    56  28  34 E6        30.18F
QUINTON*       FAIR      57  33  40 SE8       30.17F
CHARLOTTSVILLE MOSUNNY   60  36  40 S10       30.13F
GORDONSVILLE*  MOCLDY    58  37  44 MISG      30.14S
ORANGE*        PTCLDY    57  34  41 CALM      30.16S
LOUISA*        PTCLDY    61  39  44 S3        30.14F
BUMPASS*       FAIR      58  35  41 SE3       30.16S
FARMVILLE*     SUNNY     61  40  46 SE5       30.14S
CREWE*         FAIR      59  36  41 SE6       30.15S
FORT PICKETT*  FAIR      58  25  27 SE6       30.16S
CHASE CITY*    FAIR      60  33  35 SE3       30.15S
CLARKSVILLE*   FAIR      59  37  44 E6        30.15S
SOUTH HILL*    CLOUDY    59  35  40 SE3       30.22R
LAWRENCEVILLE* FAIR      58  36  43 CALM      30.16S
EMPORIA*       CLOUDY    59  37  44 SE3       30.18S
$$

VAZ088>098-212300-
SOUTHEAST VIRGINIA

CITY           SKY/WX    TMP DP  RH WIND       PRES   REMARKS
NORFOLK        CLOUDY    52  38  58 E8        30.19F
VIRGINIA BEACH MOCLDY    49  37  63 E7        30.20F
NORFOLK NAVAL  CLOUDY    51  40  65 MISG      30.21F
WEST POINT*    CLOUDY    54  33  44 SE9       30.21S
SALUDA*        FAIR      49  41  72 E7        30.20F
NEWPORT NEWS   PTCLDY    51  37  58 SE12      30.20F
LANGLEY AFB    CLOUDY    50  39  66 E9        30.20F
FORT EUSTIS    CLOUDY    56  37  47 E6        30.17F
WILLIAMSBURG*  CLOUDY    57  39  51 CALM      30.20S
HR EXEC AP*    FAIR      55  37  50 E9        30.17F
FRANKLIN*      CLOUDY    56  41  56 NE9       30.18S
US460-WAKEFLD  PTCLDY    56  40  55 VRB5      30.18S
$$

VAZ020-022-025-037-045-212300-
WEST CENTRAL AND SOUTHWEST VIRGINIA

CITY           SKY/WX    TMP DP  RH WIND       PRES   REMARKS
STAUNTON*      SUNNY     56  35  45 S10       30.12F
WAYNESBORO*    MOCLDY    55  32  42 SE9       30.12S
HOT SPRINGS VA CLOUDY    46  30  53 SE5       30.13R
LYNCHBURG      PTSUNNY   59  36  42 S6        30.15F
DANVILLE       CLOUDY    61  38  42 E3        30.13F
SOUTH BOSTON*  FAIR      59  36  41 E3        30.15S
MARTINSVILLE   MOSUNNY   59  38  45 CALM      30.15F
ROANOKE        PTSUNNY   59  37  44 E9        30.13F
BLACKSBURG     PTSUNNY   61  41  48 S8        30.13S
DUBLIN*        MOSUNNY   61  41  48 S10       30.11S
MARION*        SUNNY     62  42  48 S6        30.09S
HILLSVILLE*    PTSUNNY   54  40  58 S9        30.10F
RICHLANDS*     FAIR      63  42  47 S7        30.05S
WISE*          CLOUDY    64  36  34 CALM      30.05S
ABINGDON*      SUNNY     66  42  42 S8        30.05R
$$

MDZ021>025-VAZ099-100-212300-
SOUTHERN MARYLAND AND THE DELMARVA PENINSULA

CITY           SKY/WX    TMP DP  RH WIND       PRES   REMARKS
PATUXENT RIVER CLOUDY    48  39  71 SE10      30.20F
BAY BRIDGE APT CLOUDY    50  34  53 S9        30.19F
LEONARDTOWN    CLOUDY    50  34  53 SE12      30.20S
DOVER          CLOUDY    44  38  79 SE10      30.20F
GEORGETOWN     NOT AVBL
EASTON         MOCLDY    52  34  50 SW6       30.23F
CAMBRIDGE      NOT AVBL
SALISBURY      CLOUDY    48  37  65 SE7       30.21F
OCEAN CITY     CLOUDY    45  38  76 SE6       30.23F
WALLOPS ISLAND CLOUDY    47  38  71 E9        30.23F
ACCOMACK*      CLOUDY    48  38  68 E5        30.21F
$$

NCZ012>017-030>032-212300-
NORTH CENTRAL AND EASTERN NORTH CAROLINA

CITY           SKY/WX    TMP DP  RH WIND       PRES   REMARKS
ROANOKE RAPIDS FAIR      61  43  51 SE5       30.16S
RALEIGH        CLOUDY    63  34  33 E8        30.14S
ELIZABETH CITY PTCLDY    53  42  66 E9        30.20S
AHOSKIE*         N/A     59  44  57 E3        30.17S
EDENTON*       PTCLDY    55  44  66 E7        30.19S
CURRITUCK*     PTCLDY    52  42  67 NE7       30.21S
KILL DEVIL HLS NOT AVBL
MANTEO         PTCLDY    51  45  79 NE13      30.19S
CAPE HATTERAS  CLOUDY    62  51  67 E7        30.16F
TARBORO*       NOT AVBL
GOLDSBORO      PTSUNNY   65  47  52 E6        30.12F
WASHINGTON     NOT AVBL
GREENVILLE     MOSUNNY   64  46  52 SE6       30.16F
NEW BERN       CLOUDY    61  51  70 SE6       30.16F
WILMINGTON     CLOUDY    62  52  69 E12       30.13F
$$

VAZ048-212300-
ELSEWHERE

CITY           SKY/WX    TMP DP  RH WIND       PRES   REMARKS
HARRISBURG PA  NOT AVBL
BALTIMORE      CLOUDY    51  34  52 SE9       30.17F
ANNAPOLIS      CLOUDY    49  38  65 S8        30.19S
ANDREWS AFB    MOCLDY    53  30  41 SE10      30.16F
PHILADELPHIA   CLOUDY    49  28  44 S7        30.21S
HENDERSON NC   CLOUDY    58  34  40 E5        30.15S
GREENSBORO     CLOUDY    61  40  45 S6        30.11F
ROCKY MOUNT    CLOUDY    62  47  57 CALM      30.15S
$$

VAZ100-212300-
MARINE

STATION/POSITION TIME  TEMP    WIND        PRES    WAVE   SWELL
                       AIR SEA DIR/SP/G            HT/PER HT/PER
                 (UTC) (F)     (DEG/KT/KT) (MB)    (FT/S) (FT/S)
CAPE MAY NJ      2142   45 43  120/ 11/ 14 1023.2F
LEWES DE         2148   45 43  150/ 10/ 14 1023.0F
OCEAN-CITY-INLET 2148   45 44  140/  5/  8 1024.0F
WACHAPREAGUE VA  2148   47 50   80/  8/ 11 1023.0F
THOMAS POINT MD  2200   46 43  170/ 13/ 14   N/A
GOOSES REEF MD   2150   45     170/ 10/ 12 1023.0F
COVE POINT MD    2148   46     180/ 14/ 15 1023.1F
SOLOMONS ISLAND  2148   47 44  130/ 10/ 13   N/A
BISHOPS HEAD MD  2148   47 49  160/  9/ 11 1022.8F
PINEY POINT MD   2148          150/ 13/ 14   N/A
POTOMAC MD       2150   46     140/  6/  8 1021.8F
CAMBRIDGE MD     2148   51 41  190/  6/  9 1021.9F
LEWISETTA VA     2148   51 48  160/ 10/ 11 1022.1F
RAPPAHANNOCK LGT 2148          100/  9/ 10 1023.3F
YORK RVR RNG VA  2148   47     130/  8/ 10 1022.0F
YORKTOWN VA      2148   50 45  120/ 11/ 13 1022.3F
JAMESTOWN VA     2150   53      90/  6/ 10   N/A
DOMINION TERM VA 2148   49      80/ 10/ 13 1022.6F
KIPTOPEKE VA     2148      47  110/  8/ 11   N/A
CHES BAY BRIDGE  2136   48 46  100/ 10/ 11 1022.8F
CAPE HENRY VA    2136   48      90/  8/ 10   N/A
WILLOUBY STN VA  2136   48      90/ 13/ 14 1023.4F
S CRANEY ISL VA  2136   52     110/ 10/ 13 1022.2F
CAPE HENRY BUOY  2142      48                N/A     3/ 6
OFFSHORE WE BUOY 2151      48                N/A     4/ 6
64NM E OF VA BCH 2150   52 53   70/ 12/ 16 1022.2F   4/ 8   3/ 8
DUCK PIER NC     2136   49 49   50/ 12/ 13 1021.9F
44100 DUCK FRF   2135      49                N/A     4/ 8
44056 DUCK FRF   2200      49                N/A     4/ 6
OREGON INLET NC  2148           40/  7/ 11 1021.9F
HATTERAS NC      2136   57 58   30/  7/ 11 1021.2F
DIAMOND SHLS NC  2150   64 75  110/ 12/ 16 1021.2F   4/ 8   3/ 8
CAPE LOOKOUT NC  2100   57      40/ 13/ 15 1020.9F
$$



USA.gov is the U.S. government's official web portal to all federal, state and local government web resources and services.